Date String (YYYY-MM-DD hh:mm:ss) UTC,Instrument flags,absolute air pressure of the measurement (hPa),sample flow rate (lpm),inlet stack bypass flow (lpm),air temperature of the measurement (°C),ambient temperature measured by the external sensor (°C),aerosol sample conditioner tube jacket temperature (°C),OPC LED temperature (°C),internal box temperature (°C),relative humidity of the measurement (%),span deviation,mass concentration of particles derived from Lorenz-Mie calculation of OPC scattering (μg/m³),mass concentration of particles derived from Lorenz-Mie calculation of OPC scattering (μg/m³),mass concentration of particles derived from Lorenz-Mie calculation of OPC scattering (μg/m³)
DateTimeUTC,F1_M11,P_M11,Q1_M11,Q2_M11,T1_M11,T2_M11,T3_M11,T4_M11,T5_M11,U1_M11,ZSPAN_M11,X0_M11,X2_M11,X1_M11
2023-09-13 09:00:00,SystemResetWarning,0831.2,4.99,000.00,029.1,027.7,000.0,037.4,030.7,17.7,-000.4,0008.51,0004.69,0004.31
2023-09-13 09:01:00,SystemResetWarning,0831.3,4.99,000.00,029.1,027.8,000.0,037.4,030.8,17.8,-000.2,0008.44,0004.66,0004.30
2023-09-13 09:02:00,SystemResetWarning,0831.2,5.00,000.00,029.1,027.8,000.0,037.4,030.8,17.8,0000.0,0008.31,0004.66,0004.30
2023-09-13 09:03:00,SystemResetWarning,0831.2,5.00,000.00,029.1,027.8,000.0,037.4,030.8,17.9,0000.0,0008.25,0004.70,0004.31
2023-09-13 09:04:00,SystemResetWarning,0831.2,5.00,000.00,029.1,027.8,000.0,037.4,030.8,17.9,0000.0,0008.27,0004.71,0004.31
2023-09-13 09:05:00,SystemResetWarning,0831.2,5.01,000.00,029.2,027.8,000.0,037.4,030.8,17.9,0000.0,0008.18,0004.69,0004.32
2023-09-13 09:06:00,SystemResetWarning,0831.2,4.99,000.00,029.2,026.8,000.0,037.4,030.7,18.2,0000.0,0008.83,0004.72,0004.33
2023-09-13 09:07:00,SystemResetWarning,0831.2,5.00,000.00,029.1,025.0,000.0,037.3,030.3,18.3,0000.4,0009.07,0004.71,0004.32
2023-09-13 09:08:00,SystemResetWarning,0831.2,5.02,000.00,029.0,024.5,000.0,037.2,030.1,18.3,0000.8,0008.99,0004.68,0004.32
2023-09-13 09:09:00,SystemResetWarning,0831.2,4.99,000.00,028.8,024.7,000.0,037.2,029.9,18.2,0000.0,0008.43,0004.64,0004.32
2023-09-13 09:10:00,SystemResetWarning,0831.1,5.00,000.00,028.7,025.0,000.0,037.2,029.8,18.2,0000.0,0008.10,0004.62,0004.32
2023-09-13 09:11:00,SystemResetWarning,0831.1,5.00,000.00,028.6,025.4,000.0,037.2,029.8,18.2,0000.1,0008.12,0004.63,0004.34
2023-09-13 09:12:00,SystemResetWarning,0831.1,5.00,000.00,028.6,025.7,000.0,037.1,029.8,18.2,0002.1,0008.10,0004.63,0004.34
2023-09-13 09:13:00,SystemResetWarning,0831.1,5.00,000.00,028.6,026.0,000.0,037.1,029.9,18.3,0002.0,0008.18,0004.64,0004.36
2023-09-13 09:14:00,SystemResetWarning,0831.1,5.00,000.00,028.5,026.3,000.0,037.1,030.0,18.3,0001.7,0008.26,0004.64,0004.37
2023-09-13 09:15:00,SystemResetWarning,0831.1,5.00,000.00,028.5,026.5,000.0,037.1,030.1,17.9,0002.1,0008.24,0004.64,0004.38
2023-09-13 09:16:00,SystemResetWarning,0831.1,5.00,000.00,028.5,026.7,000.0,037.0,030.1,17.8,0002.2,0008.23,0004.64,0004.39
2023-09-13 09:17:00,SystemResetWarning,0831.1,5.00,000.00,028.6,026.8,000.0,037.0,030.2,17.8,0002.3,0007.96,0004.64,0004.39
2023-09-13 09:18:00,SystemResetWarning,0831.1,5.00,000.00,028.6,026.9,000.0,037.0,030.2,17.8,0002.1,0007.45,0004.67,0004.40
2023-09-13 09:19:00,SystemResetWarning,0831.1,5.00,000.00,028.6,027.0,000.0,037.0,030.2,17.8,0000.0,0007.53,0004.68,0004.41
2023-09-13 09:20:00,SystemResetWarning,0831.1,5.00,000.00,028.6,027.0,000.0,037.0,030.2,17.9,0000.0,0007.70,0004.70,0004.41
2023-09-13 09:21:00,SystemResetWarning,0831.1,5.00,000.00,028.6,027.1,000.0,037.0,030.2,17.9,0000.0,0007.77,0004.73,0004.41
2023-09-13 09:22:00,SystemResetWarning,0831.1,5.00,000.00,028.6,027.1,000.0,037.0,030.2,17.8,0000.0,0007.75,0004.74,0004.40
2023-09-13 09:23:00,SystemResetWarning,0831.1,5.00,000.00,028.6,027.1,000.0,037.0,030.3,17.8,0000.0,0007.78,0004.74,0004.40
2023-09-13 09:24:00,SystemResetWarning,0831.1,5.00,000.00,028.6,027.2,000.0,037.0,030.3,18.5,0000.0,0007.86,0004.76,0004.40
2023-09-13 09:25:00,SystemResetWarning,0831.1,5.01,000.00,028.7,027.2,000.0,037.0,030.3,18.9,0000.0,0007.74,0004.75,0004.40
2023-09-13 09:26:00,SystemResetWarning,0831.1,5.00,000.00,028.7,027.3,000.0,037.0,030.3,18.9,0000.0,0007.65,0004.72,0004.40
2023-09-13 09:27:00,SystemResetWarning,0831.1,5.00,000.00,028.7,027.3,000.0,037.0,030.4,19.0,0000.0,0007.68,0004.73,0004.40
2023-09-13 09:28:00,SystemResetWarning,0831.2,5.00,000.00,028.7,027.4,000.0,037.0,030.4,19.4,0000.0,0007.79,0004.76,0004.39
2023-09-13 09:29:00,SystemResetWarning,0831.2,5.00,000.00,028.7,027.4,000.0,037.0,030.4,19.5,0000.0,0007.97,0004.77,0004.39
2023-09-13 09:30:00,SystemResetWarning,0831.2,5.00,000.00,028.7,027.4,000.0,037.0,030.4,19.8,0000.0,0008.04,0004.74,0004.40
2023-09-13 09:31:00,SystemResetWarning,0831.2,5.00,000.00,028.8,027.4,000.0,037.0,030.4,20.2,0000.0,0007.95,0004.74,0004.41
2023-09-13 09:32:00,SystemResetWarning,0831.2,5.00,000.00,028.8,027.5,000.0,037.1,030.5,20.3,0000.0,0007.94,0004.75,0004.41
2023-09-13 09:33:00,SystemResetWarning,0831.2,4.99,000.00,028.8,027.5,000.0,037.1,030.5,20.5,0000.0,0007.96,0004.73,0004.42
2023-09-13 09:34:00,SystemResetWarning,0831.2,4.99,000.00,028.8,027.5,000.0,037.1,030.5,20.7,0000.0,0007.99,0004.74,0004.42
2023-09-13 09:35:00,SystemResetWarning,0831.2,5.00,000.00,028.8,027.5,000.0,037.1,030.5,20.8,0000.0,0008.00,0004.76,0004.43
2023-09-13 09:36:00,SystemResetWarning,0831.2,5.01,000.00,028.8,027.5,000.0,037.1,030.5,20.8,0000.0,0008.10,0004.77,0004.45
2023-09-13 09:37:00,SystemResetWarning,0831.2,5.01,000.00,028.9,027.5,000.0,037.1,030.5,20.8,0000.0,0008.28,0004.79,0004.45
2023-09-13 09:38:00,SystemResetWarning,0831.1,5.01,000.00,028.9,027.5,000.0,037.1,030.5,20.7,0000.0,0008.28,0004.79,0004.45
2023-09-13 09:39:00,SystemResetWarning,0831.1,5.00,000.00,028.9,027.6,000.0,037.1,030.5,20.5,0000.0,0008.27,0004.78,0004.45
2023-09-13 09:40:00,SystemResetWarning,0831.1,4.99,000.00,028.9,027.6,000.0,037.2,030.5,20.6,0000.0,0008.24,0004.80,0004.45
2023-09-13 09:41:00,SystemResetWarning,0831.1,5.00,000.00,028.9,027.6,000.0,037.2,030.6,20.5,0000.0,0007.99,0004.80,0004.45
2023-09-13 09:42:00,SystemResetWarning,0831.1,5.00,000.00,028.9,027.6,000.0,037.2,030.6,20.5,0000.0,0007.98,0004.79,0004.45
2023-09-13 09:43:00,SystemResetWarning,0831.2,5.00,000.00,028.9,027.6,000.0,037.2,030.6,20.4,0000.0,0007.98,0004.78,0004.44
2023-09-13 09:44:00,SystemResetWarning,0831.1,5.00,000.00,029.0,027.6,000.0,037.2,030.6,20.5,0000.0,0007.95,0004.77,0004.43
2023-09-13 09:45:00,SystemResetWarning,0831.1,5.00,000.00,029.0,027.7,000.0,037.2,030.6,20.4,0000.0,0007.96,0004.78,0004.44
2023-09-13 09:46:00,SystemResetWarning,0831.1,4.99,000.00,029.0,027.7,000.0,037.2,030.6,20.4,0000.0,0008.01,0004.80,0004.44
2023-09-13 09:47:00,SystemResetWarning,0831.1,4.99,000.00,029.0,027.7,000.0,037.3,030.6,20.3,0000.0,0007.97,0004.79,0004.43
2023-09-13 09:48:00,SystemResetWarning,0831.1,5.00,000.00,029.0,027.7,000.0,037.3,030.6,20.5,0000.0,0007.98,0004.80,0004.41
2023-09-13 09:49:00,SystemResetWarning,0831.1,5.00,000.00,029.0,027.7,000.0,037.3,030.7,20.5,0000.0,0008.37,0004.81,0004.41
2023-09-13 09:50:00,SystemResetWarning,0831.1,5.00,000.00,029.0,027.7,000.0,037.3,030.7,20.6,0000.0,0008.35,0004.80,0004.41
2023-09-13 09:51:00,SystemResetWarning,0831.1,5.00,000.00,029.0,027.7,000.0,037.3,030.7,20.6,0000.0,0008.24,0004.78,0004.40
2023-09-13 09:52:00,SystemResetWarning,0831.1,5.00,000.00,029.1,027.7,000.0,037.3,030.7,20.5,0000.0,0008.26,0004.78,0004.39
2023-09-13 09:53:00,SystemResetWarning,0831.1,5.00,000.00,029.1,027.7,000.0,037.3,030.7,20.7,0000.0,0008.25,0004.78,0004.40
2023-09-13 09:54:00,SystemResetWarning,0831.1,5.00,000.00,029.1,027.8,000.0,037.3,030.7,20.9,0000.0,0008.27,0004.80,0004.40
2023-09-13 09:55:00,SystemResetWarning,0831.1,5.01,000.00,029.1,027.8,000.0,037.3,030.7,21.2,0000.0,0008.24,0004.81,0004.40
2023-09-13 09:56:00,SystemResetWarning,0831.1,5.00,000.00,029.1,027.8,000.0,037.4,030.7,21.2,0000.0,0008.25,0004.80,0004.39
2023-09-13 09:57:00,SystemResetWarning,0831.1,5.00,000.00,029.1,027.8,000.0,037.4,030.8,21.2,0000.0,0008.29,0004.77,0004.38
2023-09-13 09:58:00,SystemResetWarning,0831.1,5.01,000.00,029.1,027.8,000.0,037.4,030.8,21.2,0000.0,0008.23,0004.75,0004.38
2023-09-13 09:59:00,SystemResetWarning,0831.1,5.01,000.00,029.1,027.8,000.0,037.4,030.8,21.2,0000.0,0008.26,0004.76,0004.39
